Weather History for Plainview, TX

Change the Weather History Date:

Tuesday, December 20, 2011

  Actual Average Record
Temperature  
Mean Temperature 32 °F -  
Max Temperature 35 °F 51 °F 76 °F (1917)
Min Temperature 28 °F 26 °F -4 °F (1909)
Degree Days  
Heating Degree Days 34    
Moisture  
Dew Point 27 °F    
Average Humidity 85    
Maximum Humidity 93    
Minimum Humidity 75    
Precipitation  
Precipitation 0.00 in - - ()
Sea Level Pressure  
Sea Level Pressure 29.92 in    
Wind  
Wind Speed 22 mph (NW)    
Max Wind Speed 32 mph    
Max Gust Speed 43 mph    
Visibility 10 miles    
Events      
Averages and records for this station are not official NWS values.
T = Trace of Precipitation, MM = Missing Value Source: NWS Daily Summary

Daily Weather History Graph

Daily Weather History Graph

Search for Another Location

Airport:

Trip Planner

Search our weather history database for the weather conditions in past years. The results will help you decide how hot, cold, wet, or windy it might be!

Date:

Astronomy

Dec. 20, 2011 Rise Set
Actual Time 7:48 AM CST 5:40 PM CST
Civil Twilight 7:20 AM CST 6:08 PM CST
Nautical Twilight 6:48 AM CST 6:39 PM CST
Astronomical Twilight 6:18 AM CST 7:10 PM CST
Moon 3:17 AM CST (12/20) 2:13 PM CST (12/20)
Length of Visible Light 10h 48m
Length of Day
9h 52m
Waning Crescent, 21% of the Moon is Illuminated
Dec 20
Waning Crescent
Dec 24
New
Jan 1
First Quarter
Jan 9
Full
Jan 16
Last Quarter

Hourly Weather History & Observations

Time (CST) Temp. Windchill Dew Point Humidity Pressure Visibility Wind Dir Wind Speed Gust Speed Precip Events Conditions
12:15 AM 32.0 °F 18.1 °F 30.2 °F 93% 29.82 in 10.0 mi NNW 27.6 mph 32.2 mph N/A   Overcast
12:35 AM 32.0 °F 18.4 °F 28.4 °F 87% 29.83 in 10.0 mi NNW 26.5 mph 34.5 mph N/A   Overcast
12:55 AM 32.0 °F 18.4 °F 28.4 °F 87% 29.83 in 10.0 mi NNW 26.5 mph 34.5 mph N/A   Overcast
1:15 AM 32.0 °F 18.9 °F 28.4 °F 87% 29.84 in 10.0 mi NNW 24.2 mph 38.0 mph N/A   Overcast
1:35 AM 30.2 °F 15.4 °F 26.6 °F 86% 29.85 in 10.0 mi NNW 28.8 mph 39.1 mph N/A   Overcast
1:55 AM 30.2 °F 15.2 °F 26.6 °F 86% 29.85 in 10.0 mi NNW 29.9 mph 39.1 mph N/A   Overcast
2:15 AM 30.2 °F 15.4 °F 26.6 °F 86% 29.86 in 10.0 mi NNW 28.8 mph 41.4 mph N/A   Overcast
2:35 AM 30.2 °F 15.2 °F 26.6 °F 86% 29.86 in 10.0 mi NNW 29.9 mph 36.8 mph N/A   Overcast
2:55 AM 30.2 °F 15.9 °F 26.6 °F 86% 29.87 in 10.0 mi NNW 26.5 mph 33.4 mph N/A   Overcast
3:15 AM 30.2 °F 16.5 °F 26.6 °F 86% 29.88 in 10.0 mi NNW 24.2 mph 33.4 mph N/A   Overcast
3:35 AM 30.2 °F 16.2 °F 26.6 °F 86% 29.88 in 10.0 mi NNW 25.3 mph 34.5 mph N/A   Overcast
3:55 AM 30.2 °F 16.2 °F 26.6 °F 86% 29.88 in 10.0 mi NNW 25.3 mph 38.0 mph N/A   Overcast
4:15 AM 30.2 °F 14.7 °F 26.6 °F 86% 29.88 in 10.0 mi NNW 32.2 mph 39.1 mph N/A   Overcast
4:35 AM 30.2 °F 15.2 °F 26.6 °F 86% 29.88 in 10.0 mi NNW 29.9 mph 42.6 mph N/A   Overcast
4:55 AM 30.2 °F 14.7 °F 26.6 °F 86% 29.87 in 10.0 mi NNW 32.2 mph 40.3 mph N/A   Overcast
5:35 AM 30.2 °F 15.2 °F 26.6 °F 86% 29.88 in 10.0 mi NNW 29.9 mph 38.0 mph N/A   Overcast
6:15 AM 30.2 °F 15.4 °F 26.6 °F 86% 29.92 in 10.0 mi NNW 28.8 mph 39.1 mph N/A   Overcast
7:15 AM 30.2 °F 15.9 °F 26.6 °F 86% 29.95 in 10.0 mi North 26.5 mph 35.7 mph N/A   Overcast
7:55 AM 30.2 °F 15.9 °F 24.8 °F 80% 29.96 in 10.0 mi NNW 26.5 mph 35.7 mph N/A   Overcast
8:15 AM 30.2 °F 14.7 °F 24.8 °F 80% 29.95 in 10.0 mi North 32.2 mph 39.1 mph N/A   Overcast
8:35 AM 30.2 °F 16.2 °F 24.8 °F 80% 29.96 in 10.0 mi North 25.3 mph 42.6 mph N/A   Overcast
9:35 AM 30.2 °F 17.1 °F 24.8 °F 80% 30.00 in 10.0 mi North 21.9 mph 32.2 mph N/A   Overcast
9:55 AM 30.2 °F 17.1 °F 24.8 °F 80% 30.01 in 10.0 mi NNW 21.9 mph 33.4 mph N/A   Overcast
10:15 AM 30.2 °F 16.2 °F 24.8 °F 80% 30.01 in 10.0 mi North 25.3 mph 33.4 mph N/A   Overcast
1:15 PM 32.0 °F 20.1 °F 26.6 °F 80% 29.98 in 10.0 mi NNW 19.6 mph 29.9 mph N/A   Overcast
1:35 PM 32.0 °F 19.8 °F 24.8 °F 75% 29.98 in 10.0 mi NW 20.7 mph 29.9 mph N/A   Overcast
2:15 PM 33.8 °F 21.6 °F 26.6 °F 75% 29.96 in 10.0 mi NNW 23.0 mph 32.2 mph N/A   Overcast
2:35 PM 33.8 °F 22.2 °F 26.6 °F 75% 29.96 in 10.0 mi NNW 20.7 mph 27.6 mph N/A   Overcast
2:55 PM 33.8 °F 21.6 °F 26.6 °F 75% 29.96 in 10.0 mi NNW 23.0 mph 27.6 mph N/A   Overcast
3:35 PM 33.8 °F 23.5 °F 28.4 °F 81% 29.95 in 10.0 mi NNW 16.1 mph - N/A   Mostly Cloudy
3:55 PM 33.8 °F 22.8 °F 26.6 °F 75% 29.94 in 10.0 mi NNW 18.4 mph 27.6 mph N/A   Scattered Clouds
4:35 PM 35.6 °F 26.2 °F 28.4 °F 75% 29.94 in 10.0 mi NNW 15.0 mph 21.9 mph N/A   Clear
4:55 PM 33.8 °F 24.3 °F 26.6 °F 75% 29.95 in 10.0 mi NNW 13.8 mph - N/A   Clear
5:55 PM 33.8 °F 29.6 °F 30.2 °F 87% 29.95 in 10.0 mi North 4.6 mph - N/A   Clear
6:15 PM 32.0 °F 27.5 °F 28.4 °F 87% 29.95 in 10.0 mi NNW 4.6 mph - N/A   Clear
6:35 PM 32.0 °F 26.4 °F 28.4 °F 87% 29.95 in 10.0 mi North 5.8 mph - N/A   Clear
6:55 PM 32.0 °F 28.7 °F 28.4 °F 87% 29.95 in 10.0 mi North 3.5 mph - N/A   Clear
7:15 PM 32.0 °F 28.7 °F 26.6 °F 80% 29.95 in 10.0 mi North 3.5 mph - N/A   Clear
7:35 PM 30.2 °F - 26.6 °F 86% 29.95 in 10.0 mi Calm Calm - N/A   Clear
7:55 PM 30.2 °F - 26.6 °F 86% 29.95 in 10.0 mi Calm Calm - N/A   Clear
8:15 PM 30.2 °F 25.4 °F 28.4 °F 93% 29.95 in 10.0 mi SW 4.6 mph - N/A   Clear
8:35 PM 30.2 °F 25.4 °F 28.4 °F 93% 29.95 in 10.0 mi SW 4.6 mph - N/A   Clear
8:55 PM 30.2 °F 25.4 °F 28.4 °F 93% 29.95 in 10.0 mi SW 4.6 mph - N/A   Clear
9:15 PM 30.2 °F 25.4 °F 28.4 °F 93% 29.95 in 10.0 mi SSW 4.6 mph - N/A   Clear
9:35 PM 30.2 °F 25.4 °F 28.4 °F 93% 29.95 in 10.0 mi SSW 4.6 mph - N/A   Clear
9:55 PM 30.2 °F 25.4 °F 28.4 °F 93% 29.94 in 10.0 mi SSW 4.6 mph - N/A   Clear
10:15 PM 30.2 °F 25.4 °F 28.4 °F 93% 29.93 in 10.0 mi SSW 4.6 mph - N/A   Clear
10:35 PM 30.2 °F 26.7 °F 28.4 °F 93% 29.93 in 10.0 mi SSW 3.5 mph - N/A   Clear
10:55 PM 28.4 °F 24.6 °F 26.6 °F 93% 29.93 in 10.0 mi SSW 3.5 mph - N/A   Clear
11:15 PM 28.4 °F 22.2 °F 26.6 °F 93% 29.93 in 10.0 mi SW 5.8 mph - N/A   Clear
11:35 PM 30.2 °F 25.4 °F 28.4 °F 93% 29.92 in 10.0 mi SW 4.6 mph - N/A   Clear
11:55 PM 28.4 °F 22.2 °F 26.6 °F 93% 29.91 in 10.0 mi SW 5.8 mph - N/A   Clear